"Pseudo-MPEC" for P11XUrw

Created 2024 Sep 10 12:22:10 UT using Find_Orb

Click here for an explanation of pseudo-MPECs

 
 Astrometry: 
     P11XUrw* C2024 09 04.26704920 09 30.833-42 18 04.55   ~9497 20.24wXNEOCPF51
     P11XUrw  C2024 09 04.27659720 09 36.458-42 16 05.26   ~9497 19.87wXNEOCPF51
     P11XUrw  C2024 09 04.28963920 09 44.125-42 13 21.57   ~9497 20.11wXNEOCPF51

Station data:
(F51) Pan-STARRS 1, Haleakala  (N20.707234 W156.255910)  US/Hawaii.
   Observers J. Bulger, T. Lowe, A. Schultz, M. Willman. Measurers K.
   Chambers, S. Chastel, T. de Boer, L. Denneau, J. Fairlamb, H. Flewelling,
   M. Huber, C.-C. Lin, E. Magnier, Y. Ramanjooloo, R. Wainscoat, R. Weryk.
   1.8-m Ritchey-Chrétien + CCD.

Orbital elements:  P11XUrw
   Perihelion 2024 Aug 1.17137 +/- 25.2 TT =  4:06:46 (JD 2460523.67137)
Epoch 2024 Sep  4.0 TT = JDT 2460557.5   Earth MOID: 0.0173   Ve: 0.0883
M   5.00352102 +/- 34               Ma: 0.0764                   AutoNEOCP
n   0.14790789 +/- 0.319            Peri.   25.72177 +/- 80
a   3.54112956 +/- 5.09             Node   157.93408 +/- 70
e   0.9849745 +/- 0.237             Incl.   67.97904 +/- 19
P   6.66366                H 23.28  G  0.15   U 12.0  SR
q 0.05320697 +/- 0.362    Q 7.02905214 +/- 24.8           (J2000 ecliptic)
From 3 observations 2024 Sept. 4 (32.5 min); mean residual 0".22
Residuals in arcseconds: 
240904 F51  .10+  .24+    240904 F51  .17-  .41-    240904 F51  .07+  .17+    

Ephemerides (geocentric):
Date (UTC) HH   RA             Dec           delta  r     elong  mag " sig PA
---- --------  ------------   ------------  ------ ------ -----  --- --------
2024 09 10 12  20 31 15.024   -34 24 49.55  .25807 1.1945 131.8 22.3  26d 131
2024 09 10 13  20 31 18.239   -34 23 40.15  .25921 1.1953 131.8 22.3  26d 131
2024 09 10 14  20 31 21.433   -34 22 31.29  .26035 1.1961 131.8 22.3  26d 131
2024 09 10 15  20 31 24.606   -34 21 22.97  .26149 1.1970 131.7 22.3  26d 131
2024 09 10 16  20 31 27.759   -34 20 15.19  .26264 1.1978 131.7 22.3  26d 132
2024 09 10 17  20 31 30.892   -34 19 07.92  .26378 1.1986 131.7 22.3  26d 132
2024 09 10 18  20 31 34.005   -34 18 01.18  .26492 1.1994 131.7 22.3  26d 132
2024 09 10 19  20 31 37.098   -34 16 54.94  .26606 1.2002 131.7 22.3  27d 132
2024 09 10 20  20 31 40.173   -34 15 49.21  .26720 1.2011 131.6 22.4  27d 132
2024 09 10 21  20 31 43.229   -34 14 43.97  .26834 1.2019 131.6 22.4  27d 132
2024 09 10 22  20 31 46.266   -34 13 39.23  .26948 1.2027 131.6 22.4  27d 132
2024 09 10 23  20 31 49.284   -34 12 34.97  .27063 1.2035 131.6 22.4  27d 132
2024 09 11 00  20 31 52.285   -34 11 31.19  .27177 1.2043 131.6 22.4  27d 132
2024 09 11 01  20 31 55.268   -34 10 27.88  .27291 1.2052 131.5 22.4  27d 132
2024 09 11 02  20 31 58.234   -34 09 25.04  .27405 1.2060 131.5 22.4  27d 132
2024 09 11 03  20 32 01.182   -34 08 22.66  .27519 1.2068 131.5 22.4  27d 132
2024 09 11 04  20 32 04.113   -34 07 20.73  .27633 1.2076 131.5 22.4  27d 132
2024 09 11 05  20 32 07.028   -34 06 19.26  .27748 1.2084 131.5 22.5  27d 132
2024 09 11 06  20 32 09.926   -34 05 18.22  .27862 1.2092 131.4 22.5  27d 133
2024 09 11 07  20 32 12.807   -34 04 17.63  .27976 1.2101 131.4 22.5  27d 133
2024 09 11 08  20 32 15.673   -34 03 17.47  .28090 1.2109 131.4 22.5  28d 133
2024 09 11 09  20 32 18.523   -34 02 17.73  .28205 1.2117 131.4 22.5  28d 133
2024 09 11 10  20 32 21.357   -34 01 18.42  .28319 1.2125 131.4 22.5  28d 133
2024 09 11 11  20 32 24.176   -34 00 19.52  .28433 1.2133 131.3 22.5  28d 133
2024 09 11 12  20 32 26.979   -33 59 21.04  .28548 1.2141 131.3 22.5  28d 133
2024 09 11 13  20 32 29.768   -33 58 22.96  .28662 1.2150 131.3 22.5  28d 133
2024 09 11 14  20 32 32.542   -33 57 25.29  .28776 1.2158 131.3 22.5  28d 133
2024 09 11 15  20 32 35.301   -33 56 28.01  .28890 1.2166 131.2 22.5  28d 133
2024 09 11 16  20 32 38.046   -33 55 31.13  .29005 1.2174 131.2 22.6  28d 133
2024 09 11 17  20 32 40.777   -33 54 34.63  .29119 1.2182 131.2 22.6  28d 133
2024 09 11 18  20 32 43.494   -33 53 38.52  .29233 1.2190 131.2 22.6  28d 133
2024 09 11 19  20 32 46.198   -33 52 42.78  .29348 1.2198 131.2 22.6  28d 133
2024 09 11 20  20 32 48.888   -33 51 47.42  .29462 1.2207 131.1 22.6  28d 133
2024 09 11 21  20 32 51.564   -33 50 52.43  .29577 1.2215 131.1 22.6  28d 133
2024 09 11 22  20 32 54.227   -33 49 57.80  .29691 1.2223 131.1 22.6  29d 133
2024 09 11 23  20 32 56.877   -33 49 03.54  .29805 1.2231 131.1 22.6  29d 133
2024 09 12 00  20 32 59.515   -33 48 09.63  .29920 1.2239 131.0 22.6  29d 133
2024 09 12 01  20 33 02.140   -33 47 16.08  .30034 1.2247 131.0 22.6  29d 133
2024 09 12 02  20 33 04.752   -33 46 22.87  .30149 1.2255 131.0 22.7  29d 133
2024 09 12 03  20 33 07.352   -33 45 30.01  .30263 1.2263 131.0 22.7  29d 133
2024 09 12 04  20 33 09.940   -33 44 37.49  .30377 1.2271 130.9 22.7  29d 133
2024 09 12 05  20 33 12.516   -33 43 45.30  .30492 1.2279 130.9 22.7  29d 133
2024 09 12 06  20 33 15.080   -33 42 53.45  .30606 1.2288 130.9 22.7  29d 134
2024 09 12 07  20 33 17.633   -33 42 01.93  .30721 1.2296 130.9 22.7  29d 134
2024 09 12 08  20 33 20.174   -33 41 10.73  .30835 1.2304 130.9 22.7  29d 134
2024 09 12 09  20 33 22.703   -33 40 19.86  .30950 1.2312 130.8 22.7  29d 134
2024 09 12 10  20 33 25.222   -33 39 29.30  .31064 1.2320 130.8 22.7  29d 134
2024 09 12 11  20 33 27.729   -33 38 39.06  .31179 1.2328 130.8 22.7  29d 134